Content
SEND FEEDBACK

Daily
Averages
Monthly
Summary
United States of America

ANN ARBOR, MICHIGAN


Home > North America > United States > Michigan
Elevation: 759 feet     Latitude: 42 17N     Longitude: 083 43W

WEATHER
 
SELECT A DAY
Number of Records: 203,415;   Date Range: 1/1/95 - 7/29/14
 
SHARE

PRINT THIS DATA

[ ← Previous Day ]
WEATHER ALMANAC - APRIL 17, 2014
[ Next Day → ]
[ °C ]   °F
Weather ElementAverageHighLow
Temperature48.7 °F66 °F (4:53 pm)30.9 °F (1:53 am)
Dewpoint27.7 °F33.1 °F (10:53 pm)23 °F (1:53 am)
Humidity49.5 %82 % (6:53 am)21 % (5:53 pm)
Barometer30.30 in30.36 in (1:53 am)30.22 in (6:53 pm)
Wind Speed9.2 mph19.6 mph (4:53 pm)
Wind Gust24.2 mph (3:53 pm)
Weather ElementAverage
Visibility10 mi
Wind DirectionSSE (154.5 °)

Weather ElementTotal
Precipitation---
Heating Degree Days16.6 (Base 65)
Averaged from 22 records on April 17, 2014
WEATHER CONDITIONS BREAKOUT
WIND DIRECTION BREAKOUT
WEATHER BY HOUR - APRIL 17, 2014
[ °C ]   °F
Local TimeTemperatureDewpointHumidityBarometerVisibilityWind DirectionWind SpeedGust SpeedPrecipitationEventsConditions
1:53 AM30.9 °F23.0 °F72 %30.36 in10.0 miEast (100°)10.4 mphClear
2:53 AM30.9 °F24.1 °F76 %30.36 in10.0 miEast (100°)8.1 mphClear
3:53 AM32.0 °F25.0 °F75 %30.35 in10.0 miEast (90°)6.9 mphClear
4:53 AM32.0 °F25.0 °F75 %30.35 in10.0 miEast (80°)4.6 mphClear
5:53 AM32.0 °F25.0 °F75 %30.35 in10.0 miEast (80°)5.8 mphClear
6:53 AM30.9 °F26.1 °F82 %30.35 in10.0 miEast (80°)3.5 mphClear
7:53 AM33.1 °F27.0 °F78 %30.35 in10.0 miEast (90°)5.8 mphClear
8:53 AM37.9 °F30.0 °F73 %30.36 in10.0 miESE (120°)6.9 mphClear
9:53 AM44.1 °F28.9 °F55 %30.35 in10.0 miSouth (170°)9.2 mphClear
10:53 AM48.9 °F26.1 °F41 %30.34 in10.0 miSouth (190°)13.8 mphClear
11:53 AM52.0 °F27.0 °F38 %30.33 in10.0 miSouth (170°)11.5 mphClear
1:53 PM59.0 °F30.0 °F33 %30.28 in10.0 miSSW (200°)11.5 mphClear
2:53 PM63.0 °F30.9 °F30 %30.26 in10.0 miSSW (200°)15.0 mph21.9 mphClear
3:53 PM64.9 °F28.9 °F26 %30.24 in10.0 miSSW (210°)15.0 mph24.2 mphClear
4:53 PM66.0 °F27.0 °F23 %30.23 in10.0 miSW (230°)19.6 mph23.0 mphClear
5:53 PM66.0 °F25.0 °F21 %30.23 in10.0 miSW (230°)15.0 mphClear
6:53 PM64.9 °F26.1 °F23 %30.22 in10.0 miSW (230°)15.0 mphClear
7:53 PM62.1 °F28.9 °F29 %30.22 in10.0 miSW (220°)6.9 mphPartly Cloudy
8:53 PM57.9 °F28.9 °F33 %30.24 in10.0 miSW (220°)4.6 mphClear
9:53 PM55.0 °F30.9 °F40 %30.25 in10.0 miSouth (190°)6.9 mphClear
10:53 PM55.0 °F33.1 °F43 %30.26 in10.0 miSSW (200°)6.9 mphClear
11:53 PM52.0 °F33.1 °F49 %30.25 in10.0 miCalmClear
Hourly data recorded from KARB, located miles away from Ann Arbor, Michigan







STORIES FROM OUR PARTNERS